Location: doobydoo
(53.3403°N, 2.6908°W)
Time: 19:09:57
(UTC+00:00)

ISS - Pass Details

Date: 24 November 2021
Orbit: 413 x 422 km, 51.6° (Epoch: 18 January)

Event Time Altitude Azimuth Distance (km) Brightness Sun altitude
Rises 16:36:12 0° 202° (SSW) 2,376 1.0 -5.1°
Reaches altitude 10° 16:39:00 10° 177° (S) 1,512 -0.6 -5.5°
Maximum altitude 16:40:56 15° 142° (SE) 1,268 -1.4 -5.7°
Drops below altitude 10° 16:42:52 10° 108° (ESE) 1,514 -1.3 -6.0°
Enters shadow 16:44:16 - 92° (E) 1,903 -1.0 -6.2°
